Regional Weather Roundup
Issued by NWS

Home | Current Version | Previous Version | Text Only | Print | Product List | Glossary On
Versions: 1 2 3 4 5 6 7 8 9 10 11 12 13 14 15 16 17 18 19 20 21 22 23 24 25 26 27 28 29 30 31 32 33 34 35 36 37 38 39 40 41 42 43 44 45 46 47 48 49 50
000
ASUS43 KDMX 281308
RWRIA

WEATHER ROUNDUP FOR IOWA
NATIONAL WEATHER SERVICE DES MOINES IA
800 AM CDT WED SEP 28 2016

NOTE: "FAIR" INDICATES FEW OR NO CLOUDS BELOW 12,000 FEET WITH NO
SIGNIFICANT WEATHER AND/OR OBSTRUCTIONS TO VISIBILITY.

* - THESE STATIONS ARE NOT NWS STATIONS...THUS NOT UNDER NWS
QUALITY CONTROL.  THEY ALSO DO NOT REPORT WEATHER SUCH
AS PRECIPITATION OR FOG.

IAZ001>003-012>014-020>022-031>034-043>046-281400-
   NORTHWEST IOWA

CITY           SKY/WX    TMP DP  RH WIND       PRES   REMARKS
CARROLL *      CLOUDY    46  45  93 NW6       30.07R
CHEROKEE *     CLOUDY    46  45  93 N7        30.11R
DENISON *      CLOUDY    46  43  87 N8        30.08R
LE MARS *      PTCLDY    45  41  87 CALM      30.13R
ORANGE CITY *  PTCLDY    45  43  93 N6        30.12R
SHELDON *      CLOUDY    45  45 100 N13       30.11R
SIOUX CITY     CLOUDY    46  42  86 NW7       30.12R
SPENCER        CLOUDY    47  44  90 N13       30.11R
STORM LAKE *   CLOUDY    46  45  93 N13G18    30.09R
$$

IAZ055>058-069>071-079>083-090>094-281400-
   SOUTHWEST IOWA

CITY           SKY/WX    TMP DP  RH WIND       PRES   REMARKS
ATLANTIC *     MOCLDY    45  45 100 N6        30.07R
AUDUBON *      PTCLDY    46  43  87 N5        30.08R
CLARINDA *       N/A     48  46  93 MISG      30.06R FOG
COUNCIL BLFS * CLEAR     48  45  87 N8        30.08R
CRESTON *      CLEAR     46  45  93 N12       30.04R
HARLAN  *      CLEAR     46  45  93 N7G13     30.11R
LAMONI         CLEAR     48  44  86 N9        30.01R
RED OAK *      CLEAR     48  45  87 N6G13     30.06R
SHENANDOAH *   PTCLDY    48  45  87 N6        30.07R
$$

IAZ047>049-059>061-072>074-084-281400-
   CENTRAL IOWA

CITY           SKY/WX    TMP DP  RH WIND       PRES   REMARKS
AMES           CLOUDY    52  46  80 N12       30.03R
ANKENY *         N/A    N/A N/A N/A MISG        N/A
BOONE *        CLOUDY    50  45  81 N14G21    30.03R
CHARITON *       N/A     50  43  76 N12G18    30.00R
DES MOINES     CLOUDY    53  43  68 N21       30.02R
GRINNELL*      CLOUDY    51  44  77 N13G23    30.00R
KNOXVILLE *    CLOUDY    52  43  71 N12G21    29.99R
MARSHALLTOWN   PTCLDY    50  45  83 N8        30.00R
NEWTON *       CLOUDY    52  45  76 N12G22    30.00R
PELLA *        MOCLDY    52  44  74 N10G16    30.01R
PERRY *        CLOUDY    51  46  83 N10G16    30.05R
$$

IAZ004>006-015-016-023>025-035-036-281400-
   NORTH CENTRAL IOWA

CITY           SKY/WX    TMP DP  RH WIND       PRES   REMARKS
ALGONA *       CLOUDY    48  46  93 N14       30.08R
CLARION *      CLOUDY    50  46  87 N10       30.05R
ESTHERVILLE    CLOUDY    47  45  93 N13G21    30.10R
FORT DODGE *   CLOUDY    48  41  76 N13G18    30.08R
MASON CITY     CLOUDY    50  46  86 N13       30.05R
FOREST CITY *  CLOUDY    50  45  81 N13       30.06R
WEBSTER CITY * CLOUDY    50  45  81 N16G22    30.03R
IOWA FALLS *   MOCLDY    52  45  76 NW8       30.03R
$$

IAZ007>011-017>019-026>030-037>042-050>054-066-281400-
   NORTHEAST IOWA

CITY           SKY/WX    TMP DP  RH WIND       PRES   REMARKS
CEDAR RAPIDS   CLOUDY    51  46  83 N17       29.95R
CHARLES CITY * CLOUDY    50  48  93 NW10      30.01R
CLINTON *      CLOUDY    51  46  83 N12       29.92R
DECORAH *      CLOUDY    50  50 100 NW9       29.97R
DUBUQUE        CLOUDY    49  48  97 N9        29.93S FOG
MONTICELLO *   CLOUDY    52  46  82 N9G16     29.95R
OELWEIN *      CLOUDY    50  46  87 N12G22    29.98R
WATERLOO       CLOUDY    51  45  79 NW15      29.98R
$$

IAZ064-065-067-068-078-281400-
   EAST CENTRAL IOWA

CITY           SKY/WX    TMP DP  RH WIND       PRES   REMARKS
DAVENPORT      CLOUDY    51  44  77 N13       29.93R
IOWA CITY      CLOUDY    52  44  74 N17G25    29.97R
MT. PLEASANT * CLOUDY    53  46  76 N13G21    29.95R
MUSCATINE *    CLOUDY    54  43  66 N12G20    29.95R
QUAD CITIES    CLOUDY    52  43  71 N14       29.92R
$$

IAZ062-063-075>077-085>089-095>099-281400-
   SOUTHEAST IOWA

CITY           SKY/WX    TMP DP  RH WIND       PRES   REMARKS
BURLINGTON     PTSUNNY   51  44  77 N12       29.93R
FAIRFIELD *    CLOUDY    52  41  66 N15G23    29.96R
FORT MADISON * SUNNY     50  45  81 N8        29.94R
KEOKUK *       SUNNY     52  45  76 N7G18     29.93R
OSKALOOSA *    CLOUDY    51  43  74 N9        29.99R
OTTUMWA        CLOUDY   N/A N/A N/A N18       29.98R
WASHINGTON *     N/A    N/A N/A N/A MISG        N/A
$$

ABBREVIATIONS USED IN REMARKS
   TC - TEMPERATURES IN CELSIUS
  WCI - WIND CHILL INDEX
   HX - HEAT INDEX
  VSB - VISIBILITY
$$





USA.gov is the U.S. government's official web portal to all federal, state and local government web resources and services.